This is the latest recevied weather packets stored in our database for station/object DC5DM-13. If no packets are shown the sender has not sent any weather packets the latest 10 day(s).
| Time | Temp. | Humidity | Pressure | Rain* | Wind** | Luminosity | Snow |
|---|---|---|---|---|---|---|---|
| 1777531870 | 8.33° C | 40% | 1030 hPa | 0 mm | - | - | - |
| 1777531241 | 8.33° C | 41% | 1029.9 hPa | 0 mm | - | - | - |
| 1777530669 | 7.78° C | 41% | 1029.9 hPa | 0 mm | - | - | - |
| 1777530039 | 7.78° C | 42% | 1029.9 hPa | 0 mm | - | - | - |
| 1777529469 | 7.78° C | 42% | 1029.8 hPa | 0 mm | - | - | - |
| 1777528839 | 7.22° C | 43% | 1029.7 hPa | 0 mm | - | - | - |
| 1777528269 | 6.67° C | 44% | 1029.8 hPa | 0 mm | - | - | - |
| 1777527639 | 6.11° C | 46% | 1029.7 hPa | 0 mm | - | - | - |
| 1777527070 | 5.56° C | 48% | 1029.6 hPa | 0 mm | - | - | - |
| 1777526440 | 5° C | 49% | 1029.6 hPa | 0 mm | - | - | - |
| 1777525869 | 5° C | 49% | 1029.4 hPa | 0 mm | - | - | - |
| 1777525239 | 5° C | 49% | 1029.5 hPa | 0 mm | - | - | - |
| 1777524669 | 5° C | 49% | 1029.3 hPa | 0 mm | - | - | - |
| 1777524039 | 5° C | 50% | 1029.3 hPa | 0 mm | - | - | - |
| 1777523465 | 4.44° C | 51% | 1029.3 hPa | 0 mm | - | - | - |
| 1777522855 | 4.44° C | 51% | 1029.1 hPa | 0 mm | - | - | - |
| 1777522223 | 4.44° C | 52% | 1029.2 hPa | 0 mm | - | - | - |
| 1777521655 | 4.44° C | 53% | 1029.2 hPa | 0 mm | - | - | - |
| 1777521023 | 4.44° C | 52% | 1029.1 hPa | 0 mm | - | - | - |
| 1777520455 | 5° C | 51% | 1029 hPa | 0 mm | - | - | - |
| 1777519823 | 5° C | 51% | 1029 hPa | 0 mm | - | - | - |
| 1777519249 | 5° C | 50% | 1028.9 hPa | 0 mm | - | - | - |
| 1777518679 | 5.56° C | 49% | 1028.9 hPa | 0 mm | - | - | - |
| 1777518044 | 5.56° C | 49% | 1028.7 hPa | 0 mm | - | - | - |
| 1777517471 | 5.56° C | 50% | 1028.7 hPa | 0 mm | - | - | - |
* Rain latest hour (hover to see other rain measurements)
** Current wind speed in m/s (hover to see current wind gust speed)